STARLINK-4036 (52837 NORAD) Tracking and Keplerian Element Data

This shows tracking and keplerian element data for the satellite.

Feedback or suggestion? Click here.




ElementValue
Catalog52837
NameSTARLINK-4036
Epoch Orbit130
Epoch Day247.83334491
Epoch Year2022
RAAN28.6045
Inclination53.2189
Eccentricity0.0002001
Argument of Perigee45.6373
Mean Anonmoly123.1603
Mean Motion15.08848273
Decay Rate0.00014502
L11 52837U 22062H 22247.83334491 .00014502 00000+0 92719-3 0 9991
L22 52837 53.2189 28.6045 0002001 45.6373 123.1603 15.08848273 1307

Live tracking and technical data element details for STARLINK-4036 (NORAD 52837). STARLINK-4036 can be tracked NOW for your location showing map with azimuth and elevation plus other details from your city location.

Track the satellite on the map from your city or location and see movement details for azimuth, elevation, latitude, longitude, range, height, and movement on the map or in text.







IsCatalogInMostPopularTable: catalog: 52837, numindb: 4
Update: records affected: 1



GetName: 52837 STARLINK-4036

Hit Count: updated at: Sun, 25 Sep 2022 07:31:54 GMT